TimePST,TemperatureF,Dew PointF,Humidity,Sea Level PressureIn,VisibilityMPH,Wind Direction,Wind SpeedMPH,Gust SpeedMPH,PrecipitationIn,Events,Conditions,WindDirDegrees,DateUTC
12:15 AM,44.6,35.6,71,29.90,10.0,East,15.0,-,N/A,,Clear,80,2014-02-26 08:15:00
12:35 AM,44.6,35.6,71,29.89,10.0,East,15.0,-,N/A,,Clear,80,2014-02-26 08:35:00
12:55 AM,44.6,33.8,66,29.89,10.0,East,12.7,19.6,N/A,,Clear,90,2014-02-26 08:55:00
1:15 AM,44.6,33.8,66,29.88,10.0,East,11.5,17.3,N/A,,Clear,100,2014-02-26 09:15:00
1:35 AM,44.6,33.8,66,29.88,10.0,ESE,11.5,20.7,N/A,,Clear,110,2014-02-26 09:35:00
1:55 AM,44.6,33.8,66,29.88,10.0,East,15.0,21.9,N/A,,Clear,80,2014-02-26 09:55:00
2:15 AM,44.6,33.8,66,29.86,10.0,East,20.7,29.9,N/A,,Clear,80,2014-02-26 10:15:00
2:35 AM,44.6,33.8,66,-9999,10.0,East,24.2,31.1,N/A,,Clear,80,2014-02-26 10:35:00
2:55 AM,44.6,33.8,66,29.85,10.0,East,21.9,29.9,N/A,,Clear,80,2014-02-26 10:55:00
3:15 AM,44.6,33.8,66,29.85,10.0,East,24.2,31.1,N/A,,Scattered Clouds,80,2014-02-26 11:15:00
3:35 AM,42.8,33.8,70,-9999,10.0,East,20.7,27.6,N/A,,Scattered Clouds,90,2014-02-26 11:35:00
3:55 AM,42.8,33.8,70,29.85,10.0,East,17.3,26.5,N/A,,Scattered Clouds,80,2014-02-26 11:55:00
4:15 AM,42.8,33.8,70,29.85,10.0,East,13.8,-,N/A,,Scattered Clouds,80,2014-02-26 12:15:00
4:35 AM,42.8,33.8,70,29.85,10.0,East,15.0,19.6,N/A,,Mostly Cloudy,80,2014-02-26 12:35:00
4:55 AM,42.8,33.8,70,29.86,10.0,East,16.1,-,N/A,,Scattered Clouds,90,2014-02-26 12:55:00
5:15 AM,42.8,33.8,70,29.86,10.0,East,10.4,18.4,N/A,,Clear,90,2014-02-26 13:15:00
5:35 AM,42.8,33.8,70,29.87,10.0,SE,4.6,-,N/A,,Clear,140,2014-02-26 13:35:00
5:55 AM,42.8,33.8,70,29.88,10.0,East,5.8,-,N/A,,Scattered Clouds,90,2014-02-26 13:55:00
6:20 AM,42.8,33.8,70,29.87,10.0,ENE,9.2,-,N/A,,Scattered Clouds,60,2014-02-26 14:20:00
6:35 AM,42.8,33.8,70,29.86,10.0,East,11.5,-,N/A,,Mostly Cloudy,80,2014-02-26 14:35:00
6:55 AM,42.8,33.8,70,29.87,10.0,East,12.7,-,N/A,,Mostly Cloudy,90,2014-02-26 14:55:00
7:15 AM,42.8,33.8,70,29.86,10.0,East,15.0,20.7,N/A,,Mostly Cloudy,80,2014-02-26 15:15:00
7:35 AM,42.8,33.8,70,29.87,10.0,East,11.5,-,N/A,,Scattered Clouds,90,2014-02-26 15:35:00
7:55 AM,44.6,35.6,71,-9999,10.0,East,12.7,-,N/A,,Scattered Clouds,80,2014-02-26 15:55:00
8:15 AM,44.6,35.6,71,29.88,10.0,East,12.7,-,N/A,,Mostly Cloudy,80,2014-02-26 16:15:00
8:35 AM,44.6,35.6,71,29.89,10.0,East,12.7,-,N/A,,Overcast,90,2014-02-26 16:35:00
8:55 AM,44.6,35.6,71,29.88,10.0,East,11.5,-,N/A,,Overcast,80,2014-02-26 16:55:00
9:15 AM,44.6,35.6,71,29.88,10.0,East,11.5,-,N/A,,Overcast,90,2014-02-26 17:15:00
9:35 AM,44.6,35.6,71,29.87,10.0,East,12.7,-,N/A,,Scattered Clouds,80,2014-02-26 17:35:00
9:55 AM,46.4,37.4,71,29.87,10.0,East,11.5,-,N/A,,Scattered Clouds,80,2014-02-26 17:55:00
10:15 AM,46.4,37.4,71,-9999,10.0,East,13.8,-,N/A,Rain,Light Rain,80,2014-02-26 18:15:00
10:35 AM,46.4,37.4,71,29.86,10.0,East,13.8,-,N/A,,Mostly Cloudy,80,2014-02-26 18:35:00
11:00 AM,46.4,37.4,71,-9999,10.0,East,11.5,-,N/A,Rain,Light Rain,80,2014-02-26 19:00:00
11:15 AM,46.4,37.4,71,29.85,10.0,East,13.8,17.3,N/A,,Overcast,80,2014-02-26 19:15:00
11:35 AM,46.4,37.4,71,29.85,10.0,East,16.1,20.7,N/A,,Overcast,80,2014-02-26 19:35:00
11:55 AM,48.2,37.4,66,29.85,10.0,East,17.3,20.7,N/A,,Overcast,90,2014-02-26 19:55:00
12:15 PM,48.2,37.4,66,29.84,10.0,East,17.3,-,N/A,,Overcast,80,2014-02-26 20:15:00
12:35 PM,46.4,41.0,81,29.84,10.0,East,11.5,-,N/A,,Light Drizzle,80,2014-02-26 20:35:00
12:55 PM,48.2,41.0,76,29.82,10.0,East,12.7,-,N/A,,Overcast,80,2014-02-26 20:55:00
1:15 PM,51.8,41.0,67,29.81,10.0,East,13.8,-,N/A,,Overcast,80,2014-02-26 21:15:00
1:35 PM,51.8,41.0,67,29.80,10.0,East,15.0,-,N/A,,Overcast,90,2014-02-26 21:35:00
1:55 PM,55.4,41.0,58,29.80,10.0,East,18.4,-,N/A,,Overcast,80,2014-02-26 21:55:00
2:15 PM,55.4,41.0,58,29.79,10.0,East,17.3,-,N/A,,Mostly Cloudy,80,2014-02-26 22:15:00
2:35 PM,55.4,41.0,58,29.78,10.0,East,15.0,-,N/A,,Scattered Clouds,80,2014-02-26 22:35:00
2:55 PM,57.2,41.0,55,29.78,10.0,East,12.7,-,N/A,,Scattered Clouds,80,2014-02-26 22:55:00
3:15 PM,55.4,41.0,58,29.77,10.0,East,12.7,-,N/A,,Mostly Cloudy,80,2014-02-26 23:15:00
3:35 PM,53.6,41.0,62,29.77,10.0,East,12.7,-,N/A,,Overcast,80,2014-02-26 23:35:00
3:55 PM,53.6,41.0,62,29.76,10.0,East,12.7,-,N/A,,Overcast,80,2014-02-26 23:55:00
4:15 PM,53.6,41.0,62,29.76,10.0,East,12.7,-,N/A,,Overcast,80,2014-02-27 00:15:00
4:35 PM,53.6,39.2,58,29.75,10.0,East,15.0,-,N/A,,Overcast,90,2014-02-27 00:35:00
4:55 PM,51.8,39.2,62,29.75,10.0,East,15.0,-,N/A,,Overcast,80,2014-02-27 00:55:00
5:15 PM,51.8,37.4,58,29.74,10.0,East,16.1,-,N/A,,Scattered Clouds,80,2014-02-27 01:15:00
5:35 PM,51.8,37.4,58,29.74,10.0,ENE,15.0,-,N/A,,Clear,70,2014-02-27 01:35:00
5:55 PM,50.0,37.4,62,29.73,10.0,East,12.7,-,N/A,,Clear,80,2014-02-27 01:55:00
6:15 PM,50.0,37.4,62,29.73,10.0,ENE,13.8,-,N/A,,Clear,70,2014-02-27 02:15:00
6:35 PM,50.0,37.4,62,29.72,10.0,ENE,12.7,19.6,N/A,,Scattered Clouds,70,2014-02-27 02:35:00
6:55 PM,50.0,37.4,62,29.71,10.0,East,15.0,-,N/A,,Scattered Clouds,80,2014-02-27 02:55:00
7:15 PM,50.0,35.6,58,29.71,10.0,East,15.0,-,N/A,,Clear,80,2014-02-27 03:15:00
7:35 PM,50.0,35.6,58,29.70,10.0,East,13.8,19.6,N/A,,Mostly Cloudy,80,2014-02-27 03:35:00
7:55 PM,50.0,35.6,58,29.69,10.0,East,13.8,20.7,N/A,,Overcast,80,2014-02-27 03:55:00
8:15 PM,50.0,35.6,58,29.68,10.0,East,16.1,-,N/A,,Overcast,80,2014-02-27 04:15:00
8:35 PM,50.0,35.6,58,29.68,10.0,East,13.8,-,N/A,,Overcast,80,2014-02-27 04:35:00
8:55 PM,48.2,35.6,62,29.67,10.0,East,16.1,-,N/A,,Overcast,90,2014-02-27 04:55:00
9:15 PM,48.2,35.6,62,29.67,10.0,East,13.8,20.7,N/A,Rain,Light Rain,80,2014-02-27 05:15:00
9:35 PM,48.2,35.6,62,29.67,10.0,East,13.8,18.4,N/A,,Overcast,80,2014-02-27 05:35:00
9:55 PM,48.2,35.6,62,29.68,10.0,SE,10.4,19.6,N/A,,Overcast,140,2014-02-27 05:55:00
10:15 PM,50.0,35.6,58,29.68,10.0,SSE,5.8,-,N/A,,Overcast,150,2014-02-27 06:15:00
10:35 PM,48.2,37.4,66,-9999,10.0,Calm,Calm,-,N/A,,Drizzle,0,2014-02-27 06:35:00
10:55 PM,48.2,37.4,66,29.66,10.0,ESE,5.8,-,N/A,,Light Drizzle,120,2014-02-27 06:55:00
11:15 PM,48.2,35.6,62,29.65,10.0,Calm,Calm,-,N/A,,Overcast,0,2014-02-27 07:15:00
11:35 PM,46.4,35.6,66,29.64,10.0,East,4.6,-,N/A,Rain,Light Rain,80,2014-02-27 07:35:00
11:55 PM,46.4,35.6,66,29.64,10.0,East,12.7,-,N/A,,Overcast,80,2014-02-27 07:55:00